N7BTW-13 Weather Reports


time (UTC)temp
F
wind
direction
speed
knots
gust
knots
rain 1hr
in
rain 24hr
in
rain mn
in
humidity
%
barometer
mb
20260508024006 68 15 0.9 2.6 0.00 0.00 0.00 55 1016.3
20260508023008 68 68 0.9 2.6 0.00 0.00 0.00 55 1016.4
20260508022008 68 309 0.0 1.7 0.00 0.00 0.00 53 1016.3
20260508021007 69 323 0.9 1.7 0.00 0.00 0.00 52 1016.4
20260508020008 71 353 1.7 4.3 0.00 0.00 0.00 51 1016.4
20260508015010 72 345 1.7 2.6 0.00 0.00 0.00 51 1016.3
20260508014009 74 0.0 0.9 0.00 0.00 0.00 49 1016.5
20260508013006 74 277 0.9 1.7 0.00 0.00 0.00 50 1016.6
20260508012009 75 340 0.9 1.7 0.00 0.00 0.00 50 1016.7
20260508011007 75 338 0.9 2.6 0.00 0.00 0.00 47 1016.7
20260508010014 74 250 0.9 1.7 0.00 0.00 0.00 48 1016.7
20260508005006 72 241 0.9 1.7 0.00 0.00 0.00 51 1016.8
20260508004007 72 239 1.7 2.6 0.00 0.00 0.00 49 1016.9
20260508003007 75 196 1.7 3.5 0.00 0.00 0.00 47 1017.0
20260508002007 76 220 1.7 3.5 0.00 0.00 0.00 46 1017.1
20260508001007 76 0.0 0.0 0.00 0.00 0.00 48 1017.1
20260508000006 75 358 1.7 2.6 0.00 0.00 0.00 46 1017.2
20260507235007 75 272 0.9 1.7 0.00 0.00 0.00 48 1017.2
20260507234009 74 298 1.7 2.6 0.00 0.00 0.00 48 1017.4
20260507233007 75 337 1.7 2.6 0.00 0.00 0.00 47 1017.5
20260507232008 74 13 1.7 2.6 0.00 0.00 0.00 48 1017.7
20260507231012 75 259 1.7 2.6 0.00 0.00 0.00 45 1017.8
20260507230006 74 325 1.7 1.7 0.00 0.00 0.00 49 1018.0
20260507225007 74 254 1.7 2.6 0.00 0.00 0.00 50 1018.2
20260507224009 74 245 1.7 2.6 0.00 0.00 0.00 48 1018.3
20260507223006 73 313 1.7 2.6 0.00 0.00 0.00 50 1018.4
20260507222007 73 216 1.7 3.5 0.00 0.00 0.00 51 1018.6
20260507221008 73 250 1.7 2.6 0.00 0.00 0.00 51 1018.8
20260507220008 73 314 1.7 2.6 0.00 0.00 0.00 53 1018.9
20260507215011 72 236 1.7 2.6 0.00 0.00 0.00 52 1019.0
20260507214008 72 33 1.7 2.6 0.00 0.00 0.00 52 1019.0
20260507213009 72 266 1.7 2.6 0.00 0.00 0.00 50 1019.2
20260507212008 72 251 1.7 2.6 0.00 0.00 0.00 53 1019.3
20260507211009 70 228 1.7 3.5 0.00 0.00 0.00 53 1019.3
20260507210006 70 281 1.7 4.3 0.00 0.00 0.00 52 1019.5
20260507205007 68 212 1.7 3.5 0.00 0.00 0.00 52 1019.7
20260507204007 69 252 1.7 2.6 0.00 0.00 0.00 55 1019.8
20260507203007 69 339 1.7 2.6 0.00 0.00 0.00 56 1019.9
20260507202008 68 268 2.6 4.3 0.00 0.00 0.00 53 1020.1
20260507201007 67 236 1.7 3.5 0.00 0.00 0.00 54 1020.2
20260507200009 66 229 2.6 3.5 0.00 0.00 0.00 55 1020.4
20260507195007 67 326 0.9 1.7 0.00 0.00 0.00 59 1020.4
20260507194009 65 261 2.6 3.5 0.00 0.00 0.00 58 1020.5
20260507193006 65 242 1.7 4.3 0.00 0.00 0.00 60 1020.5
20260507192006 65 269 2.6 3.5 0.00 0.00 0.00 61 1020.8
20260507191008 64 145 1.7 3.5 0.00 0.00 0.00 63 1020.8
20260507190007 64 227 1.7 5.2 0.00 0.00 0.00 61 1020.9
20260507185010 62 281 1.7 2.6 0.00 0.00 0.00 64 1021.0
20260507184007 63 198 1.7 3.5 0.00 0.00 0.00 66 1021.1
20260507183008 63 66 1.7 3.5 0.00 0.00 0.00 67 1021.1
20260507182008 59 248 0.0 1.7 0.00 0.00 0.00 70 1021.2
20260507181006 62 113 0.9 2.6 0.00 0.00 0.00 68 1021.3
20260507180007 61 284 1.7 2.6 0.00 0.00 0.00 67 1021.5
20260507175006 61 171 1.7 2.6 0.00 0.00 0.00 67 1021.5
20260507174008 61 204 1.7 2.6 0.00 0.00 0.00 67 1021.6
20260507173008 61 109 1.7 2.6 0.00 0.00 0.00 67 1021.7
20260507172007 60 228 1.7 2.6 0.00 0.00 0.00 68 1021.7
20260507171006 59 226 1.7 3.5 0.00 0.00 0.00 70 1021.7
20260507170010 57 281 1.7 3.5 0.00 0.00 0.00 72 1021.7
20260507165006 57 299 1.7 2.6 0.00 0.00 0.00 72 1021.7
20260507164009 56 264 0.9 1.7 0.00 0.00 0.00 73 1021.7
20260507163007 56 303 1.7 2.6 0.00 0.00 0.00 72 1021.7
20260507162008 55 233 1.7 3.5 0.00 0.00 0.00 74 1021.8
20260507161008 55 212 0.9 1.7 0.00 0.00 0.00 77 1021.9
20260507160012 54 287 0.9 1.7 0.00 0.00 0.00 79 1021.9
20260507155010 53 212 0.9 1.7 0.00 0.00 0.00 79 1021.9
20260507154010 53 348 0.9 2.6 0.00 0.00 0.00 80 1021.9
20260507153007 53 340 0.9 2.6 0.00 0.00 0.00 79 1021.9
20260507152009 52 0.0 0.0 0.00 0.00 0.00 81 1021.8
20260507151011 52 113 0.0 0.9 0.00 0.00 0.00 81 1021.8
20260507150006 52 125 0.0 1.7 0.00 0.00 0.00 80 1021.8
20260507145008 52 266 0.9 2.6 0.00 0.00 0.00 80 1021.8
20260507144006 51 169 0.9 2.6 0.00 0.00 0.00 82 1021.8
20260507143007 51 205 0.9 2.6 0.00 0.00 0.00 82 1021.7
20260507142008 51 259 0.0 0.9 0.00 0.00 0.00 83 1021.7
20260507141014 51 248 0.9 1.7 0.00 0.00 0.00 83 1021.7
20260507140007 50 297 0.9 2.6 0.00 0.00 0.00 84 1021.6
20260507135013 50 300 0.9 1.7 0.00 0.00 0.00 84 1021.5
20260507134008 50 264 0.9 2.6 0.00 0.00 0.00 85 1021.4
20260507133007 50 205 0.9 2.6 0.00 0.00 0.00 85 1021.4
20260507132009 50 185 0.9 1.7 0.00 0.00 0.00 86 1021.3
20260507131009 50 0.0 0.0 0.00 0.00 0.00 86 1021.3
20260507130009 50 0.0 0.0 0.00 0.00 0.00 85 1021.3
20260507125007 50 248 0.0 1.7 0.00 0.00 0.00 85 1021.3
20260507124008 50 0.0 0.0 0.00 0.00 0.00 85 1021.3
20260507123007 51 0.0 0.0 0.00 0.00 0.00 85 1021.3
20260507122007 51 169 0.0 0.9 0.00 0.00 0.00 85 1021.4
20260507121007 51 180 0.0 1.7 0.00 0.00 0.00 86 1021.5
20260507120008 51 225 0.0 1.7 0.00 0.00 0.00 86 1021.5
20260507115006 51 225 0.0 1.7 0.00 0.00 0.00 85 1021.6
20260507114006 51 0.0 0.0 0.00 0.00 0.00 86 1021.7
20260507113007 51 0.0 0.0 0.00 0.00 0.00 86 1021.6
20260507112006 51 0.0 0.0 0.00 0.00 0.00 85 1021.6
20260507111008 51 0.0 0.0 0.00 0.00 0.00 85 1021.7
20260507110009 51 0.0 0.0 0.00 0.00 0.00 85 1021.7
20260507105006 51 0.0 0.0 0.00 0.00 0.00 85 1021.7
20260507104008 52 277 0.9 1.7 0.00 0.00 0.00 85 1021.8
20260507103007 52 270 0.0 1.7 0.00 0.00 0.00 85 1022.0
20260507102009 52 0.0 0.0 0.00 0.00 0.00 85 1022.0
20260507101008 52 10 0.0 1.7 0.00 0.00 0.00 84 1022.1
20260507100006 52 136 0.0 2.6 0.00 0.00 0.00 84 1022.1
20260507095008 52 270 0.0 1.7 0.00 0.00 0.00 84 1022.1
20260507094009 52 0.0 0.0 0.00 0.00 0.00 84 1022.1
20260507093009 52 0.0 0.0 0.00 0.00 0.00 84 1022.2
20260507092007 52 0.0 0.0 0.00 0.00 0.00 84 1022.3
20260507091007 52 0.0 0.0 0.00 0.00 0.00 83 1022.4
20260507090007 53 191 0.9 1.7 0.00 0.00 0.00 83 1022.5
20260507085010 53 314 0.9 1.7 0.00 0.00 0.00 83 1022.4
20260507084009 53 0.0 0.0 0.00 0.00 0.00 84 1022.4
20260507083008 53 0.0 0.0 0.00 0.00 0.00 84 1022.4
20260507082008 53 0.0 0.0 0.00 0.00 0.00 85 1022.4
20260507081006 53 248 0.0 1.7 0.00 0.00 0.00 85 1022.4
20260507080017 53 0.0 0.0 0.00 0.00 0.00 86 1022.4
20260507075011 53 0.0 0.0 0.00 0.00 0.00 87 1022.4
20260507074009 53 0.0 0.0 0.00 0.00 0.00 88 1022.4
20260507073009 53 0.0 0.0 0.00 0.00 0.00 88 1022.4
20260507072009 53 16 0.0 0.9 0.00 0.00 0.00 89 1022.4
20260507071009 53 270 0.0 0.9 0.00 0.00 0.00 89 1022.3
20260507070013 53 349 0.0 2.6 0.00 0.00 0.00 89 1022.3
20260507065009 53 23 0.9 1.7 0.00 0.00 0.00 89 1022.2
20260507064008 53 0.0 0.0 0.00 0.00 0.00 89 1022.3
20260507063009 53 0.0 0.0 0.00 0.00 0.00 89 1022.3
20260507062007 53 0.0 0.0 0.00 0.00 0.00 90 1022.3
20260507061009 52 289 0.9 1.7 0.00 0.00 0.00 91 1022.4
20260507060008 52 289 0.9 1.7 0.00 0.00 0.00 92 1022.4
20260507055008 52 308 0.9 2.6 0.00 0.00 0.00 92 1022.4
20260507054007 52 327 0.9 3.5 0.00 0.00 0.00 92 1022.3
20260507053012 52 303 0.9 2.6 0.00 0.00 0.00 91 1022.2
20260507052008 53 113 0.0 1.7 0.00 0.00 0.00 89 1022.2
20260507051007 53 0.0 0.0 0.00 0.00 0.00 87 1022.2
20260507050013 54 0.0 0.0 0.00 0.00 0.00 86 1022.3
20260507045006 55 0.0 0.0 0.00 0.00 0.00 85 1022.2
20260507044008 56 323 0.0 1.7 0.00 0.00 0.00 83 1022.2
20260507043007 57 293 0.0 1.7 0.00 0.00 0.00 83 1022.1
20260507042008 57 248 0.0 1.7 0.00 0.00 0.00 82 1022.0
20260507041009 58 38 0.9 3.5 0.00 0.00 0.00 82 1022.0
20260507040008 58 349 0.9 2.6 0.00 0.00 0.00 82 1021.8
20260507035006 58 223 0.9 1.7 0.00 0.00 0.00 80 1021.7
20260507034009 59 254 1.7 2.6 0.00 0.00 0.00 81 1021.6
20260507033007 59 0.0 0.0 0.00 0.00 0.00 81 1021.4
20260507032008 60 0.0 0.0 0.00 0.00 0.00 82 1021.3
20260507031008 60 0.0 0.0 0.00 0.00 0.00 81 1021.2
20260507030007 61 318 0.9 3.5 0.00 0.00 0.00 80 1021.1
20260507025007 62 81 1.7 3.5 0.00 0.00 0.00 79 1020.9